Regional Weather Roundup
Issued by NWS State College, PA

Home | Current Version | Previous Version | Graphics & Text | Print | Product List | Glossary Off
Versions: 1 2 3 4 5 6 7 8 9 10 11 12 13 14 15 16 17 18 19 20 21 22 23 24 25 26 27 28 29 30 31 32 33 34 35 36 37 38 39 40 41 42 43 44 45 46 47 48 49 50

000
ASUS41 KCTP 012010
RWRCTP

REGIONAL WEATHER ROUNDUP
NATIONAL WEATHER SERVICE STATE COLLEGE PA
400 PM EDT SUN MAY 01 2016

Note: "fair" indicates few or no clouds below 12,000 feet with no
significant weather and/or obstructions to visibility.

* = STATION THAT DOES NOT REPORT PRECIPITATION /E.G. RAIN...SNOW...ETC/
    THUNDER OR FOG.

PAZ002>004-007>009-013>016-020>023-029>032-012100-
WESTERN PENNSYLVANIA

CITY           SKY/WX    TMP DP  RH WIND       PRES   REMARKS
ERIE           CLOUDY    49  48  97 NE7       29.96S FOG
MEADVILLE        N/A    N/A N/A N/A MISG      29.92S
FRANKLIN*      CLOUDY    72  55  56 NW9G17    29.93S
NEW CASTLE     MOCLDY    72  56  57 SW6       29.91F
BEAVER COUNTY  NOT AVBL
BUTLER*        PTSUNNY   72  59  64 SW9       29.95S
PITTSBURGH INT MOSUNNY   73  55  53 W9        29.92F
PITTSBURGH     CLOUDY    69  59  70 SW6       29.92F
INDIANA*       PTSUNNY   64  63  94 W8        29.97S FOG
LATROBE        PTSUNNY   70  63  78 W9        29.94F
WASHINGTON CO* CLOUDY    68  59  73 CALM      29.94S
$$

PAZ004>006-010>012-017>019-024>028-033>037-041-042-045-046-049>053-012100-
CENTRAL PENNSYLVANIA

CITY           SKY/WX    TMP DP  RH WIND       PRES   REMARKS
BRADFORD       CLOUDY    59  56  89 SE9       29.92F
DUBOIS         LGT RAIN  60  56  86 VRB5      29.92F
CLEARFIELD     CLOUDY    56  52  86 E6        29.96F
JOHNSTOWN      CLOUDY    64  56  75 NW7       29.96S
ALTOONA        LGT RAIN  56  53  90 E8        29.98S
STATE COLLEGE  CLOUDY    50  48  93 SE3       30.00F FOG
WILLIAMSPORT   CLOUDY    49  45  86 E9        30.03F
SELINSGROVE    CLOUDY    49  45  86 SE5       30.06F
FT INDIANTOWN  CLOUDY    49  49 100 E5        30.06F FOG
CAPITAL CITY   CLOUDY    53  48  83 SE8       30.05F
HARRISBURG     CLOUDY    53  49  86 SE8       30.04F
YORK           CLOUDY    52  50  93 SE7       30.04F
$$

PAZ038>040-043-044-047-048-054-055-060>062-067>071-012100-
EASTERN PENNSYLVANIA

CITY           SKY/WX    TMP DP  RH WIND       PRES   REMARKS
SCRANTON       LGT RAIN  47  43  86 CALM      30.06F
MOUNT POCONO   LGT RAIN  42  40  92 SE8       30.06F
ALLENTOWN      CLOUDY    50  46  86 SE6       30.09F
QUAKERTOWN*    CLOUDY    48  46  93 S6        30.10S
READING        CLOUDY    50  46  86 SE7       30.07F
LANCASTER      CLOUDY    50  49  96 SE8       30.06F FOG
COATESVILLE    CLOUDY    50  50 100 SE6       30.08F FOG
POTTSTOWN      CLOUDY    50  48  93 SE5       30.10S
BLUE BELL      CLOUDY    48  46  93 SE3       30.10S
DOYLESTOWN     CLOUDY    48  47  96 CALM      30.10F
WILLOW GROVE   NOT AVBL
NORTH PHILA    LGT RAIN  52  49  89 SE6       30.12F
PHILADELPHIA   LGT RAIN  53  49  86 SE3       30.11F FOG
$$



USA.gov is the U.S. government's official web portal to all federal, state and local government web resources and services.